Location: Dana
(41.8364°N, 106.7042°W)
Time: 01:50:07
(UTC+00:00)

Altair - Pass Details

Date: 14 May 2026
Orbit: 1501 x 1682 km, 47.2° (Epoch: 6 June)

Event Time Altitude Azimuth Distance (km) Brightness Sun altitude
Rises 11:05:04 0° 210° (SSW) 4,789 - -7.7°
Exits shadow 11:06:04 - 208° (SSW) 4,488 9.4 -7.5°
Reaches altitude 10° 11:08:19 10° 204° (SSW) 3,831 9.1 -7.2°
Maximum altitude 11:17:25 45° 136° (SE) 2,150 8.4 -5.8°
Drops below altitude 10° 11:26:46 10° 69° (ENE) 3,941 11.5 -4.3°
Sets 11:30:08 0° 63° (ENE) 4,938 13.4 -3.7°
